2019-144T00:01:59.046,   1, 180,   1,   120,   4,          0,     41.614,  99294.559,    59.215,    -9.112,     0.904,   135.068, 2, 5.486E-04, -1.00,   2,  6.256E-03,  1.043E-04,  2.204E-12,  2.688E-14,  2.199E+03,  2.682E+01, 255
2019-144T00:03:59.047,   1, 180,   1,   120,   4,          0,     41.614,  99294.559,    59.206,    -9.110,     0.904,   133.859, 2, 5.486E-04, -1.00,   2,  6.760E-03,  1.102E-04,  2.236E-12,  2.701E-14,  2.065E+03,  2.494E+01, 255
2019-144T00:05:59.049,   1, 180,   1,   120,   4,          0,     41.614,  99294.559,    59.197,    -9.108,     0.904,   132.649, 2, 5.486E-04, -1.00,   2,  6.520E-03,  1.083E-04,  2.008E-12,  2.591E-14,  1.923E+03,  2.480E+01, 255
2019-144T00:07:59.050,   1, 180,   1,   120,   4,          0,     41.614,  99294.559,    59.188,    -9.107,     0.904,   131.440, 2, 5.486E-04, -1.00,   2,  6.565E-03,  1.020E-04,  2.310E-12,  2.620E-14,  2.197E+03,  2.491E+01, 255
2019-144T00:09:59.051,   1, 180,   1,   120,   4,          0,     41.614,  99294.559,    59.179,    -9.105,     0.904,   130.231, 2, 5.486E-04, -1.00,   2,  5.789E-03,  9.465E-05,  1.527E-12,  2.261E-14,  1.646E+03,  2.438E+01, 255
2019-144T00:11:59.053,   1, 180,   1,   120,   4,          0,     41.614,  99294.559,    59.171,    -9.103,     0.904,   129.021, 2, 5.486E-04, -1.00,   2,  6.318E-03,  8.774E-05,  1.026E-12,  1.904E-14,  1.014E+03,  1.881E+01, 255
2019-144T00:13:59.054,   1, 180,   1,   120,   4,          0,     41.614,  99294.559,    59.162,    -9.102,     0.904,   127.812, 2, 5.486E-04, -1.00,   2,  7.609E-03,  8.941E-05,  1.148E-12,  1.879E-14,  9.418E+02,  1.541E+01, 255
2019-144T00:15:59.056,   1, 180,   1,   120,   4,          0,     41.614,  99294.559,    59.153,    -9.100,     0.903,   126.602, 2, 5.486E-04, -1.00,   2,  7.737E-03,  9.272E-05,  1.320E-12,  1.930E-14,  1.065E+03,  1.557E+01, 255
2019-144T00:17:59.057,   1, 180,   1,   120,   4,          0,     41.614,  99294.559,    59.144,    -9.098,     0.903,   125.393, 2, 5.486E-04, -1.00,   2,  7.744E-03,  9.087E-05,  1.109E-12,  1.829E-14,  8.941E+02,  1.474E+01, 255
2019-144T00:19:59.058,   1, 180,   1,   120,   4,          0,     41.614,  99294.559,    59.135,    -9.097,     0.903,   124.183, 2, 5.486E-04, -1.00,   2,  7.690E-03,  8.945E-05,  1.077E-12,  1.816E-14,  8.744E+02,  1.474E+01, 255
2019-144T00:21:59.060,   1, 180,   1,   120,   4,          0,     41.614,  99294.559,    59.127,    -9.095,     0.903,   122.974, 2, 5.486E-04, -1.00,   2,  7.215E-03,  8.621E-05,  1.060E-12,  1.851E-14,  9.167E+02,  1.601E+01, 255
2019-144T00:23:59.061,   1, 180,   1,   120,   4,          0,     41.614,  99294.559,    59.118,    -9.093,     0.903,   121.765, 2, 5.486E-04, -1.00,   2,  7.576E-03,  9.155E-05,  1.112E-12,  1.873E-14,  9.158E+02,  1.543E+01, 255
2019-144T00:25:59.063,   1, 180,   1,   120,   4,          0,     41.614,  99294.559,    59.109,    -9.092,     0.903,   120.555, 2, 5.486E-04, -1.00,   2,  8.094E-03,  9.082E-05,  1.094E-12,  1.835E-14,  8.433E+02,  1.415E+01, 255
2019-144T00:27:59.064,   1, 180,   1,   120,   4,          0,     41.614,  99294.559,    59.100,    -9.090,     0.903,   119.346, 2, 5.486E-04, -1.00,   2,  7.700E-03,  8.629E-05,  9.476E-13,  1.804E-14,  7.681E+02,  1.463E+01, 255
2019-144T00:29:59.065,   1, 180,   1,   120,   4,          0,     41.614,  99294.559,    59.091,    -9.088,     0.903,   118.136, 2, 5.486E-04, -1.00,   2,  9.160E-03,  8.983E-05,  9.015E-13,  1.602E-14,  6.143E+02,  1.092E+01, 255
2019-144T00:31:59.067,   1, 180,   1,   120,   4,          0,     41.614,  99294.559,    59.082,    -9.087,     0.903,   116.927, 2, 5.486E-04, -1.00,   2,  9.197E-03,  8.787E-05,  1.189E-12,  1.746E-14,  8.070E+02,  1.185E+01, 255
2019-144T00:33:59.068,   1, 180,   1,   120,   4,          0,     41.614,  99294.559,    59.074,    -9.085,     0.903,   115.717, 2, 5.486E-04, -1.00,   2,  9.381E-03,  9.241E-05,  1.082E-12,  1.731E-14,  7.199E+02,  1.152E+01, 255
2019-144T00:35:59.069,   1, 180,   1,   120,   4,          0,     41.614,  99294.559,    59.065,    -9.083,     0.903,   114.508, 2, 5.486E-04, -1.00,   2,  9.301E-03,  9.014E-05,  1.202E-12,  1.733E-14,  8.067E+02,  1.163E+01, 255
2019-144T00:37:59.071,   1, 180,   1,   120,   4,          0,     41.614,  99294.559,    59.056,    -9.082,     0.903,   113.299, 2, 5.486E-04, -1.00,   2,  9.095E-03,  8.933E-05,  1.177E-12,  1.779E-14,  8.074E+02,  1.221E+01, 255
2019-144T00:39:59.072,   1, 180,   1,   120,   4,          0,     41.614,  99294.559,    59.047,    -9.080,     0.903,   112.089, 2, 5.486E-04, -1.00,   2,  8.956E-03,  8.935E-05,  1.125E-12,  1.718E-14,  7.838E+02,  1.197E+01, 255
2019-144T00:41:59.074,   1, 180,   1,   120,   4,          0,     41.614,  99294.559,    59.038,    -9.078,     0.903,   110.880, 2, 5.486E-04, -1.00,   2,  8.673E-03,  8.854E-05,  9.939E-13,  1.692E-14,  7.153E+02,  1.218E+01, 255
2019-144T00:43:59.075,   1, 180,   1,   120,   4,          0,     41.614,  99294.559,    59.029,    -9.077,     0.903,   109.670, 2, 5.486E-04, -1.00,   2,  8.962E-03,  8.720E-05,  1.017E-12,  1.648E-14,  7.084E+02,  1.148E+01, 255
2019-144T00:45:59.076,   1, 180,   1,   120,   4,          0,     41.614,  99294.559,    59.021,    -9.075,     0.903,   108.461, 2, 5.486E-04, -1.00,   2,  1.000E-02,  9.323E-05,  1.210E-12,  1.739E-14,  7.552E+02,  1.085E+01, 255
2019-144T00:47:59.078,   1, 180,   1,   120,   4,          0,     41.614,  99294.559,    59.012,    -9.073,     0.903,   107.252, 2, 5.486E-04, -1.00,   2,  9.248E-03,  8.843E-05,  1.001E-12,  1.668E-14,  6.758E+02,  1.126E+01, 255
2019-144T00:49:59.079,   1, 180,   1,   120,   4,          0,     41.614,  99294.559,    59.003,    -9.072,     0.903,   106.042, 2, 5.486E-04, -1.00,   2,  9.320E-03,  8.875E-05,  8.566E-13,  1.603E-14,  5.736E+02,  1.073E+01, 255
2019-144T00:53:59.082,   1, 180,   1,   120,   4,          0,     41.614,  99294.559,    58.985,    -9.068,     0.903,   103.623, 2, 5.486E-04, -1.00,   2,  6.986E-03,  8.451E-05,  4.366E-13,  1.553E-14,  3.901E+02,  1.387E+01, 255
2019-144T00:55:59.083,   1, 180,   1,   120,   4,          0,     41.614,  99294.559,    58.976,    -9.067,     0.903,   102.414, 2, 5.486E-04, -1.00,   2,  7.597E-03,  8.572E-05,  4.336E-13,  1.553E-14,  3.562E+02,  1.276E+01, 255
2019-144T00:57:59.085,   1, 180,   1,   120,   4,          0,     41.614,  99294.559,    58.968,    -9.065,     0.903,   101.204, 2, 5.486E-04, -1.00,   2,  7.673E-03,  8.585E-05,  5.473E-13,  1.599E-14,  4.452E+02,  1.300E+01, 255
2019-144T00:59:59.086,   1, 180,   1,   120,   4,          0,     41.614,  99294.559,    58.959,    -9.063,     0.903,    99.995, 2, 5.486E-04, -1.00,   2,  6.792E-03,  8.481E-05,  3.614E-13,  1.480E-14,  3.321E+02,  1.360E+01, 255
2019-144T01:01:59.087,   1, 180,   1,   120,   4,          0,     41.614,  99294.559,    58.950,    -9.062,     0.903,    98.786, 2, 5.486E-04, -1.00,   2,  6.811E-03,  7.970E-05,  4.801E-13,  1.563E-14,  4.399E+02,  1.432E+01, 255
2019-144T01:03:59.089,   1, 180,   1,   120,   4,          0,     41.614,  99294.559,    58.941,    -9.060,     0.903,    97.576, 2, 5.486E-04, -1.00,   2,  7.937E-03,  8.279E-05,  5.496E-13,  1.526E-14,  4.322E+02,  1.200E+01, 255
2019-144T01:05:59.090,   1, 180,   1,   120,   4,          0,     41.614,  99294.559,    58.932,    -9.058,     0.903,    96.367, 2, 5.486E-04, -1.00,   2,  9.188E-03,  8.739E-05,  7.443E-13,  1.528E-14,  5.056E+02,  1.038E+01, 255
2019-144T01:07:59.092,   1, 180,   1,   120,   4,          0,     41.614,  99294.559,    58.923,    -9.057,     0.903,    95.157, 2, 5.486E-04, -1.00,   2,  5.858E-03,  7.727E-05,  5.330E-13,  1.536E-14,  5.679E+02,  1.636E+01, 255
2019-144T01:09:59.093,   1, 180,   1,   120,   4,          0,     41.614,  99294.559,    58.914,    -9.055,     0.903,    93.948, 2, 5.486E-04, -1.00,   2,  3.059E-03,  6.873E-05,  3.472E-13,  1.530E-14,  7.083E+02,  3.121E+01, 255
2019-144T09:53:59.455,   1, 180,   1,   120,   4,          0,     41.614,  99294.559,    56.546,    -8.596,     0.895,   137.075, 2, 5.486E-04, -1.00,   2,  2.116E-03,  6.538E-05,  3.669E-13,  1.470E-14,  1.082E+03,  4.336E+01, 255
2019-144T09:55:59.456,   1, 180,   1,   120,   4,          0,     41.614,  99294.559,    56.537,    -8.595,     0.895,   135.866, 2, 5.486E-04, -1.00,   2,  2.294E-03,  6.762E-05,  3.510E-13,  1.504E-14,  9.550E+02,  4.091E+01, 255
2019-144T09:57:59.458,   1, 180,   1,   120,   4,          0,     41.614,  99294.559,    56.528,    -8.593,     0.895,   134.656, 2, 5.486E-04, -1.00,   2,  2.328E-03,  6.718E-05,  4.030E-13,  1.508E-14,  1.081E+03,  4.044E+01, 255
2019-144T10:01:59.461,   1, 180,   1,   120,   4,          0,     41.614,  99294.559,    56.510,    -8.589,     0.894,   132.238, 2, 5.486E-04, -1.00,   2,  2.674E-03,  7.028E-05,  5.677E-13,  1.579E-14,  1.325E+03,  3.686E+01, 255
2019-144T10:03:59.462,   1, 180,   1,   120,   4,          0,     41.614,  99294.559,    56.500,    -8.587,     0.894,   131.028, 2, 5.486E-04, -1.00,   2,  2.457E-03,  6.438E-05,  3.904E-13,  1.461E-14,  9.919E+02,  3.712E+01, 255
2019-144T10:05:59.463,   1, 180,   1,   120,   4,          0,     41.614,  99294.559,    56.491,    -8.585,     0.894,   129.819, 2, 5.486E-04, -1.00,   2,  2.554E-03,  7.001E-05,  4.518E-13,  1.522E-14,  1.104E+03,  3.718E+01, 255
2019-144T10:07:59.465,   1, 180,   1,   120,   4,          0,     41.614,  99294.559,    56.482,    -8.584,     0.894,   128.609, 2, 5.486E-04, -1.00,   2,  2.451E-03,  6.518E-05,  4.872E-13,  1.541E-14,  1.240E+03,  3.924E+01, 255
2019-144T10:09:59.466,   1, 180,   1,   120,   4,          0,     41.614,  99294.559,    56.473,    -8.582,     0.894,   127.400, 2, 5.486E-04, -1.00,   2,  2.210E-03,  6.480E-05,  4.123E-13,  1.529E-14,  1.164E+03,  4.318E+01, 255
2019-144T12:05:59.547,   1, 180,   1,   120,   4,          0,     41.614,  99294.559,    55.934,    -8.475,     0.892,    57.251, 2, 5.486E-04, -1.00,   2,  2.219E-03,  9.336E-05,  9.710E-15,  1.444E-14,  2.731E+01,  4.061E+01, 255
2019-144T12:07:59.548,   1, 180,   1,   120,   4,          0,     41.614,  99294.559,    55.925,    -8.473,     0.892,    56.042, 2, 5.486E-04, -1.00,   2,  2.163E-03,  9.345E-05,  6.001E-14,  1.527E-14,  1.732E+02,  4.407E+01, 255
2019-144T12:09:59.549,   1, 180,   1,   120,   4,          0,     41.614,  99294.559,    55.915,    -8.471,     0.892,    54.833, 2, 5.486E-04, -1.00,   2,  2.553E-03,  9.564E-05,  7.373E-14,  1.456E-14,  1.802E+02,  3.560E+01, 255
2019-144T14:19:59.639,   1, 180,   1,   120,   4,          0,     41.614,  99294.559,    55.305,    -8.348,     0.891,   336.217, 2, 5.486E-04, -1.00,   2,  2.341E-03,  9.345E-05,  1.388E-14,  1.450E-14,  3.701E+01,  3.865E+01, 255
2019-144T14:21:59.641,   1, 180,   1,   120,   4,          0,     41.614,  99294.559,    55.296,    -8.346,     0.891,   335.008, 2, 5.486E-04, -1.00,   2,  2.623E-03,  9.884E-05,  1.211E-13,  1.515E-14,  2.882E+02,  3.605E+01, 255
2019-144T14:23:59.642,   1, 180,   1,   120,   4,          0,     41.614,  99294.559,    55.286,    -8.345,     0.890,   333.799, 2, 5.486E-04, -1.00,   2,  2.361E-03,  9.111E-05,  2.398E-13,  1.566E-14,  6.341E+02,  4.140E+01, 255
2019-144T16:25:59.727,   1, 180,   1,   120,   4,          0,     41.614,  99294.559,    54.708,    -8.227,     0.888,   260.021, 2, 5.486E-04, -1.00,   2,  4.342E-03,  7.531E-05,  3.303E-13,  1.592E-14,  4.748E+02,  2.288E+01, 255
2019-144T16:27:59.728,   1, 180,   1,   120,   4,          0,     41.614,  99294.559,    54.698,    -8.225,     0.888,   258.811, 2, 5.486E-04, -1.00,   2,  5.768E-03,  8.395E-05,  3.793E-13,  1.513E-14,  4.105E+02,  1.638E+01, 255
2019-144T16:29:59.729,   1, 180,   1,   120,   4,          0,     41.614,  99294.559,    54.689,    -8.223,     0.888,   257.602, 2, 5.486E-04, -1.00,   2,  5.931E-03,  8.274E-05,  3.790E-13,  1.534E-14,  3.988E+02,  1.615E+01, 255
2019-144T16:39:59.736,   1, 180,   1,   120,   4,          0,     41.614,  99294.559,    54.641,    -8.213,     0.888,   251.555, 2, 5.486E-04, -1.00,   2,  2.613E-03,  6.960E-05,  1.192E-13,  1.440E-14,  2.848E+02,  3.440E+01, 255
2019-144T16:41:59.738,   1, 180,   1,   120,   4,          0,     41.614,  99294.559,    54.631,    -8.211,     0.888,   250.345, 2, 5.486E-04, -1.00,   2,  3.101E-03,  7.063E-05,  2.630E-13,  1.526E-14,  5.293E+02,  3.071E+01, 255
2019-144T16:43:59.739,   1, 180,   1,   120,   4,          0,     41.614,  99294.559,    54.622,    -8.209,     0.888,   249.136, 2, 5.486E-04, -1.00,   2,  3.358E-03,  7.514E-05,  1.683E-13,  1.471E-14,  3.129E+02,  2.733E+01, 255
2019-144T16:47:59.742,   1, 180,   1,   120,   4,          0,     41.614,  99294.559,    54.603,    -8.205,     0.888,   246.717, 2, 5.486E-04, -1.00,   2,  4.319E-03,  7.560E-05,  2.314E-13,  1.495E-14,  3.344E+02,  2.160E+01, 255
2019-144T16:49:59.743,   1, 180,   1,   120,   4,          0,     41.614,  99294.559,    54.593,    -8.204,     0.888,   245.507, 2, 5.486E-04, -1.00,   2,  5.474E-03,  8.186E-05,  3.508E-13,  1.496E-14,  4.000E+02,  1.706E+01, 255
2019-144T16:51:59.745,   1, 180,   1,   120,   4,          0,     41.614,  99294.559,    54.584,    -8.202,     0.888,   244.298, 2, 5.486E-04, -1.00,   2,  4.858E-03,  7.863E-05,  2.031E-13,  1.454E-14,  2.609E+02,  1.868E+01, 255
2019-144T16:53:59.746,   1, 180,   1,   120,   4,          0,     41.614,  99294.559,    54.574,    -8.200,     0.888,   243.088, 2, 5.486E-04, -1.00,   2,  4.682E-03,  7.424E-05,  3.222E-13,  1.504E-14,  4.295E+02,  2.005E+01, 255
2019-144T16:55:59.747,   1, 180,   1,   120,   4,          0,     41.614,  99294.559,    54.565,    -8.198,     0.888,   241.879, 2, 5.486E-04, -1.00,   2,  5.245E-03,  8.166E-05,  2.032E-13,  1.468E-14,  2.418E+02,  1.747E+01, 255
2019-144T16:57:59.749,   1, 180,   1,   120,   4,          0,     41.614,  99294.559,    54.555,    -8.196,     0.888,   240.669, 2, 5.486E-04, -1.00,   2,  5.245E-03,  7.700E-05,  3.154E-13,  1.528E-14,  3.753E+02,  1.818E+01, 255
2019-144T16:59:59.750,   1, 180,   1,   120,   4,          0,     41.614,  99294.559,    54.545,    -8.194,     0.888,   239.460, 2, 5.486E-04, -1.00,   2,  5.579E-03,  8.052E-05,  2.999E-13,  1.427E-14,  3.355E+02,  1.596E+01, 255
2019-144T17:01:59.752,   1, 180,   1,   120,   4,          0,     41.614,  99294.559,    54.536,    -8.192,     0.888,   238.250, 2, 5.486E-04, -1.00,   2,  5.115E-03,  7.940E-05,  3.798E-13,  1.546E-14,  4.635E+02,  1.886E+01, 255
2019-144T17:03:59.753,   1, 180,   1,   120,   4,          0,     41.614,  99294.559,    54.526,    -8.190,     0.888,   237.041, 2, 5.486E-04, -1.00,   2,  5.310E-03,  7.785E-05,  2.997E-13,  1.467E-14,  3.522E+02,  1.725E+01, 255
2019-144T17:05:59.754,   1, 180,   1,   120,   4,          0,     41.614,  99294.559,    54.517,    -8.188,     0.888,   235.831, 2, 5.486E-04, -1.00,   2,  4.928E-03,  7.956E-05,  3.647E-13,  1.542E-14,  4.619E+02,  1.953E+01, 255
2019-144T17:07:59.756,   1, 180,   1,   120,   4,          0,     41.614,  99294.559,    54.507,    -8.186,     0.888,   234.622, 2, 5.486E-04, -1.00,   2,  5.195E-03,  7.990E-05,  2.008E-13,  1.450E-14,  2.412E+02,  1.743E+01, 255
2019-144T17:09:59.757,   1, 180,   1,   120,   4,          0,     41.614,  99294.559,    54.498,    -8.184,     0.888,   233.412, 2, 5.486E-04, -1.00,   2,  5.319E-03,  8.291E-05,  2.706E-13,  1.489E-14,  3.175E+02,  1.747E+01, 255
2019-144T17:11:59.759,   1, 180,   1,   120,   4,          0,     41.614,  99294.559,    54.488,    -8.182,     0.888,   232.203, 2, 5.486E-04, -1.00,   2,  5.727E-03,  8.458E-05,  1.859E-13,  1.447E-14,  2.026E+02,  1.577E+01, 255
2019-144T17:13:59.760,   1, 180,   1,   120,   4,          0,     41.614,  99294.559,    54.478,    -8.180,     0.887,   230.993, 2, 5.486E-04, -1.00,   2,  5.735E-03,  8.073E-05,  2.339E-13,  1.432E-14,  2.546E+02,  1.559E+01, 255
2019-144T17:15:59.761,   1, 180,   1,   120,   4,          0,     41.614,  99294.559,    54.469,    -8.178,     0.887,   229.784, 2, 5.486E-04, -1.00,   2,  5.798E-03,  8.263E-05,  2.734E-13,  1.557E-14,  2.943E+02,  1.677E+01, 255
2019-144T17:17:59.763,   1, 180,   1,   120,   4,          0,     41.614,  99294.559,    54.459,    -8.176,     0.887,   228.575, 2, 5.486E-04, -1.00,   2,  5.264E-03,  7.906E-05,  2.844E-13,  1.497E-14,  3.372E+02,  1.775E+01, 255
2019-144T17:19:59.764,   1, 180,   1,   120,   4,          0,     41.614,  99294.559,    54.450,    -8.174,     0.887,   227.365, 2, 5.486E-04, -1.00,   2,  4.859E-03,  7.677E-05,  2.003E-13,  1.443E-14,  2.572E+02,  1.854E+01, 255
2019-144T17:21:59.766,   1, 180,   1,   120,   4,          0,     41.614,  99294.559,    54.440,    -8.172,     0.887,   226.156, 2, 5.486E-04, -1.00,   2,  4.151E-03,  7.788E-05,  2.192E-13,  1.425E-14,  3.296E+02,  2.143E+01, 255
2019-144T17:23:59.767,   1, 180,   1,   120,   4,          0,     41.614,  99294.559,    54.431,    -8.170,     0.887,   224.946, 2, 5.486E-04, -1.00,   2,  3.741E-03,  7.456E-05,  1.430E-13,  1.391E-14,  2.385E+02,  2.321E+01, 255
2019-144T17:25:59.768,   1, 180,   1,   120,   4,          0,     41.614,  99294.559,    54.421,    -8.168,     0.887,   223.737, 2, 5.486E-04, -1.00,   2,  3.465E-03,  6.964E-05,  1.492E-13,  1.378E-14,  2.688E+02,  2.482E+01, 255
2019-144T17:27:59.770,   1, 180,   1,   120,   4,          0,     41.614,  99294.559,    54.411,    -8.166,     0.887,   222.527, 2, 5.486E-04, -1.00,   2,  4.144E-03,  7.390E-05,  5.269E-13,  1.548E-14,  7.936E+02,  2.331E+01, 255
2019-144T17:29:59.771,   1, 180,   1,   120,   4,          0,     41.614,  99294.559,    54.402,    -8.164,     0.887,   221.318, 2, 5.486E-04, -1.00,   2,  5.428E-03,  7.498E-05,  1.397E-12,  1.816E-14,  1.607E+03,  2.088E+01, 255
2019-144T17:31:59.772,   1, 180,   1,   120,   4,          0,     41.614,  99294.559,    54.392,    -8.162,     0.887,   220.108, 2, 5.486E-04, -1.00,   2,  4.644E-03,  7.400E-05,  1.214E-12,  1.768E-14,  1.632E+03,  2.375E+01, 255
2019-144T17:33:59.774,   1, 180,   1,   120,   4,          0,     41.614,  99294.559,    54.383,    -8.160,     0.887,   218.899, 2, 5.486E-04, -1.00,   2,  4.888E-03,  7.391E-05,  9.602E-13,  1.672E-14,  1.226E+03,  2.134E+01, 255
2019-144T17:35:59.775,   1, 180,   1,   120,   4,          0,     41.614,  99294.559,    54.373,    -8.158,     0.887,   217.689, 2, 5.486E-04, -1.00,   2,  4.456E-03,  7.135E-05,  7.789E-13,  1.596E-14,  1.091E+03,  2.236E+01, 255
2019-144T17:37:59.777,   1, 180,   1,   120,   4,          0,     41.614,  99294.559,    54.363,    -8.156,     0.887,   216.480, 2, 5.486E-04, -1.00,   2,  4.851E-03,  7.561E-05,  7.039E-13,  1.551E-14,  9.058E+02,  1.995E+01, 255
2019-144T17:39:59.778,   1, 180,   1,   120,   4,          0,     41.614,  99294.559,    54.354,    -8.154,     0.887,   215.270, 2, 5.486E-04, -1.00,   2,  4.348E-03,  7.466E-05,  4.708E-13,  1.508E-14,  6.758E+02,  2.164E+01, 255
2019-144T17:41:59.779,   1, 180,   1,   120,   4,          0,     41.614,  99294.559,    54.344,    -8.152,     0.887,   214.061, 2, 5.486E-04, -1.00,   2,  3.358E-03,  7.185E-05,  2.013E-13,  1.412E-14,  3.741E+02,  2.623E+01, 255
2019-144T17:43:59.781,   1, 180,   1,   120,   4,          0,     41.614,  99294.559,    54.335,    -8.150,     0.887,   212.851, 2, 5.486E-04, -1.00,   2,  5.312E-03,  7.477E-05,  8.256E-13,  1.563E-14,  9.701E+02,  1.836E+01, 255
2019-144T17:45:59.782,   1, 180,   1,   120,   4,          0,     41.614,  99294.559,    54.325,    -8.148,     0.887,   211.642, 2, 5.486E-04, -1.00,   2,  5.590E-03,  7.869E-05,  1.286E-12,  1.781E-14,  1.436E+03,  1.989E+01, 255
2019-144T17:47:59.783,   1, 180,   1,   120,   4,          0,     41.614,  99294.559,    54.315,    -8.146,     0.887,   210.432, 2, 5.486E-04, -1.00,   2,  5.862E-03,  8.134E-05,  1.291E-12,  1.842E-14,  1.375E+03,  1.962E+01, 255
2019-144T17:49:59.785,   1, 180,   1,   120,   4,          0,     41.614,  99294.559,    54.306,    -8.145,     0.887,   209.223, 2, 5.486E-04, -1.00,   2,  5.398E-03,  7.848E-05,  1.042E-12,  1.745E-14,  1.205E+03,  2.017E+01, 255
2019-144T17:51:59.786,   1, 180,   1,   120,   4,          0,     41.614,  99294.559,    54.296,    -8.143,     0.887,   208.013, 2, 5.486E-04, -1.00,   2,  4.850E-03,  7.663E-05,  1.088E-12,  1.766E-14,  1.400E+03,  2.273E+01, 255
2019-144T17:53:59.788,   1, 180,   1,   120,   4,          0,     41.614,  99294.559,    54.287,    -8.141,     0.887,   206.804, 2, 5.486E-04, -1.00,   2,  4.849E-03,  8.163E-05,  1.127E-12,  1.876E-14,  1.450E+03,  2.415E+01, 255
2019-144T17:55:59.789,   1, 180,   1,   120,   4,          0,     41.614,  99294.559,    54.277,    -8.139,     0.887,   205.594, 2, 5.486E-04, -1.00,   2,  5.267E-03,  7.887E-05,  1.296E-12,  1.843E-14,  1.536E+03,  2.184E+01, 255
2019-144T17:57:59.790,   1, 180,   1,   120,   4,          0,     41.614,  99294.559,    54.267,    -8.137,     0.887,   204.385, 2, 5.486E-04, -1.00,   2,  6.118E-03,  8.294E-05,  1.715E-12,  1.938E-14,  1.749E+03,  1.977E+01, 255
2019-144T17:59:59.792,   1, 180,   1,   120,   4,          0,     41.614,  99294.559,    54.258,    -8.135,     0.887,   203.175, 2, 5.486E-04, -1.00,   2,  6.289E-03,  8.942E-05,  1.624E-12,  2.044E-14,  1.612E+03,  2.029E+01, 255
2019-144T18:01:59.793,   1, 180,   1,   120,   4,          0,     41.614,  99294.559,    54.248,    -8.133,     0.887,   201.966, 2, 5.486E-04, -1.00,   2,  6.130E-03,  8.518E-05,  1.542E-12,  1.987E-14,  1.570E+03,  2.023E+01, 255
2019-144T18:03:59.795,   1, 180,   1,   120,   4,          0,     41.614,  99294.559,    54.239,    -8.131,     0.887,   200.757, 2, 5.486E-04, -1.00,   2,  6.678E-03,  8.967E-05,  1.597E-12,  1.984E-14,  1.492E+03,  1.854E+01, 255
2019-144T18:05:59.796,   1, 180,   1,   120,   4,          0,     41.614,  99294.559,    54.229,    -8.129,     0.887,   199.547, 2, 5.486E-04, -1.00,   2,  6.007E-03,  8.438E-05,  1.398E-12,  1.923E-14,  1.452E+03,  1.998E+01, 255
2019-144T18:07:59.797,   1, 180,   1,   120,   4,          0,     41.614,  99294.559,    54.219,    -8.127,     0.887,   198.338, 2, 5.486E-04, -1.00,   2,  6.832E-03,  8.864E-05,  2.043E-12,  2.100E-14,  1.867E+03,  1.918E+01, 255
2019-144T18:09:59.799,   1, 180,   1,   120,   4,          0,     41.614,  99294.559,    54.210,    -8.125,     0.887,   197.128, 2, 5.486E-04, -1.00,   2,  6.756E-03,  8.664E-05,  2.356E-12,  2.254E-14,  2.177E+03,  2.083E+01, 255
2019-144T18:11:59.800,   1, 180,   1,   120,   4,          0,     41.614,  99294.559,    54.200,    -8.123,     0.887,   195.919, 2, 5.486E-04, -1.00,   2,  6.451E-03,  8.230E-05,  1.745E-12,  1.987E-14,  1.688E+03,  1.922E+01, 255
2019-144T18:13:59.801,   1, 180,   1,   120,   4,          0,     41.614,  99294.559,    54.191,    -8.121,     0.887,   194.709, 2, 5.486E-04, -1.00,   2,  6.438E-03,  8.828E-05,  1.549E-12,  1.956E-14,  1.501E+03,  1.897E+01, 255
2019-144T18:15:59.803,   1, 180,   1,   120,   4,          0,     41.614,  99294.559,    54.181,    -8.119,     0.887,   193.500, 2, 5.486E-04, -1.00,   2,  6.440E-03,  8.665E-05,  1.650E-12,  1.997E-14,  1.600E+03,  1.935E+01, 255
2019-144T18:17:59.804,   1, 180,   1,   120,   4,          0,     41.614,  99294.559,    54.171,    -8.117,     0.887,   192.290, 2, 5.486E-04, -1.00,   2,  5.833E-03,  8.317E-05,  1.159E-12,  1.814E-14,  1.240E+03,  1.941E+01, 255
2019-144T18:19:59.806,   1, 180,   1,   120,   4,          0,     41.614,  99294.559,    54.162,    -8.115,     0.886,   191.081, 2, 5.486E-04, -1.00,   2,  5.202E-03,  8.570E-05,  9.058E-13,  1.954E-14,  1.087E+03,  2.345E+01, 255
2019-144T18:21:59.807,   1, 180,   1,   120,   4,          0,     41.614,  99294.559,    54.152,    -8.113,     0.886,   189.871, 2, 5.486E-04, -1.00,   2,  5.608E-03,  9.068E-05,  1.828E-12,  2.295E-14,  2.035E+03,  2.554E+01, 255
2019-144T18:23:59.808,   1, 180,   1,   120,   4,          0,     41.614,  99294.559,    54.142,    -8.111,     0.886,   188.662, 2, 5.486E-04, -1.00,   2,  9.222E-03,  1.031E-04,  3.773E-12,  2.720E-14,  2.553E+03,  1.841E+01, 255